Regional Weather Roundup
Issued by NWS

Home | Current Version | Previous Version | Graphics & Text | Print | Product List | Glossary On
Versions: 1 2 3 4 5 6 7 8 9 10 11 12 13 14 15 16 17 18 19 20 21 22 23 24 25 26 27 28 29 30 31 32 33 34 35 36 37 38 39 40 41 42 43 44 45 46 47 48 49 50
000
ASUS43 KBIS 260710
RWRND

NORTH DAKOTA REGIONAL WEATHER ROUNDUP
NATIONAL WEATHER SERVICE BISMARCK ND
200 AM CDT FRI AUG 26 2016

NOTE: "FAIR" INDICATES FEW OR NO CLOUDS BELOW 12,000 FEET WITH NO
SIGNIFICANT WEATHER AND/OR OBSTRUCTIONS TO VISIBILITY.


NDZ001>003-009>011-017-260800-
NORTHWEST NORTH DAKOTA

CITY           SKY/WX    TMP DP  RH WIND       PRES   REMARKS
WILLISTON      FAIR      54  40  59 SW5       30.09S
MINOT          FAIR      58  44  60 SW9       30.05F
MINOT AFB      FAIR      52  43  71 S7        30.04F
$$

NDZ018>021-031>035-040>046-260800-
SOUTHWEST NORTH DAKOTA

CITY           SKY/WX    TMP DP  RH WIND       PRES   REMARKS
BISMARCK       FAIR      48  44  86 SW3       30.14R
DICKINSON      FAIR      48  39  71 CALM      30.13S
GARRISON         N/A     49  46  90 S5        30.09S
HETTINGER ARPT FAIR      50  41  71 CALM      30.18F
$$

NDZ004>008-012>016-024-026-027-054-260800-
NORTHEAST NORTH DAKOTA

CITY           SKY/WX    TMP DP  RH WIND       PRES   REMARKS
GRAND FORKS    FAIR      49  46  90 SW3       30.07R
GRND FRKS AFB  FAIR      50  48  92 SW6       30.07R
DEVILS LAKE    FAIR      59  50  72 SW8       30.09S
$$

NDZ022-023-025-028>030-036>039-047>053-260800-
SOUTHEAST NORTH DAKOTA

CITY           SKY/WX    TMP DP  RH WIND       PRES   REMARKS
FARGO          FAIR      57  51  80 SW9       30.11S
JAMESTOWN      FAIR      53  48  83 SW5       30.11F
$$





USA.gov is the U.S. government's official web portal to all federal, state and local government web resources and services.